Regional Weather Roundup
Issued by NWS

Home | Current Version | Previous Version | Graphics & Text | Print | Product List | Glossary On
Versions: 1 2 3 4 5 6 7 8 9 10 11 12 13 14 15 16 17 18 19 20 21 22 23 24 25 26 27 28 29 30 31 32 33 34 35 36 37 38 39 40 41 42 43 44 45 46 47 48 49 50
000
ASUS43 KMPX 271110
RWRMN
WEATHER ROUNDUP FOR MINNESOTA
NATIONAL WEATHER SERVICE TWIN CITIES/CHANHASSEN MN
600 AM CDT MON APR 27 2015


NOTE: "FAIR" INDICATES FEW OR NO CLOUDS BELOW 12,000 FEET WITH NO
SIGNIFICANT WEATHER AND/OR OBSTRUCTIONS TO VISIBILITY. N/A MEANS
CURRENT SKY AND/OR WEATHER CONDITIONS ARE NOT AVAILABLE.

MNZ060>063-068>070-271200-
   Twin Cities Metro

CITY           SKY/WX    TMP DP  RH WIND       PRES   REMARKS
TWIN CITIES    PTCLDY    40  30  67 N3        30.20S
ST PAUL        CLEAR     40  29  64 CALM      30.21S
CRYSTAL        CLEAR     35  27  72 CALM      30.20R
BLAINE         CLEAR     36  28  75 CALM      30.20S
LAKEVILLE      CLEAR     32  27  80 NW3       30.19S
EDEN PRAIRIE   CLEAR     40  28  62 N6        30.18F
SOUTH ST PAUL  CLEAR     39  29  65 CALM      30.20R
LAKE ELMO      FAIR      32  28  86 CALM      30.21R
$$
MNZ001>005-007-008-013>017-022>024-027-028-271200-
   Northwest Minnesota

CITY           SKY/WX    TMP DP  RH WIND       PRES   REMARKS
BEMIDJI        CLEAR     27  21  77 CALM      30.21S
HALLOCK        MOCLDY    39  21  48 S3        30.18S
ROSEAU         MOCLDY    34  27  75 CALM      30.19F
WARROAD        PTCLDY    34  28  80 CALM      30.21R
THIEF RVR FALL PTCLDY    39  21  48 S3        30.20S
CROOKSTON      MOCLDY    36  25  64 S8        30.20S
FOSSTON        PTCLDY    34  25  69 CALM      30.21S
DETROIT LAKES  CLEAR     37  30  75 CALM      30.21S
MOORHEAD       PTCLDY    37  23  56 CALM      30.21R
PARK RAPIDS    CLEAR     33  23  66 CALM      30.20S
MAHNOMEN       FAIR      42  23  48 S3        30.19F
$$
MNZ006-009>011-018-025>026-271200-
   North Central Minnesota

CITY           SKY/WX    TMP DP  RH WIND       PRES   REMARKS
BAUDETTE       CLEAR     32  27  81 E3        30.21R
FLAG ISLAND    CLEAR     41  32  70 SE3       30.20S
INTL FALLS     CLEAR     24  21  88 CALM      30.22R
WASKISH        CLEAR     28  25  86 CALM      30.22R
BIG FORK       CLEAR     25  19  80 CALM      30.22R
LONGVILLE      CLEAR     27  25  93 CALM      30.21S
GRAND RAPIDS   CLEAR     28  18  64 CALM      30.21S
CRANE LAKE     CLEAR     21  21 100 CALM      30.24R
ORR            CLEAR     27  23  86 CALM      30.20R
COOK           CLEAR     25  21  86 CALM      30.22R
WALKER         FAIR      28  23  79 CALM      30.20S
$$
MNZ012-019>021-037-271200-
   Northeast Minnesota

CITY           SKY/WX    TMP DP  RH WIND       PRES   REMARKS
DULUTH         CLEAR     30  24  78 NW3       30.21R
ELY            CLEAR     25  21  86 CALM      30.21R
HIBBING        CLEAR     22  18  85 CALM      30.22R
EVELETH        CLEAR     25  21  86 CALM      30.23R
DULUTH HARBOR  CLEAR     34  28  80 SW7       30.23S WCI  28
TWO HARBORS    CLEAR     37  27  65 NW5       30.19R
SILVER BAY     CLEAR     27  23  86 CALM      30.19R
GRAND MARAIS     N/A     42  27  55 N9        30.19R
G MARAIS ARPRT CLEAR     28  21  74 NW6       30.19R WCI  22
$$
MNZ029>031-032-039>041-046>048-054>057-064-271200-
   West Central Minnesota

CITY           SKY/WX    TMP DP  RH WIND       PRES   REMARKS
FERGUS FALLS   CLEAR     37  27  65 E5        30.22S
WHEATON        CLEAR     28  21  74 CALM      30.22R
MORRIS         CLEAR     34  25  69 E5        30.20R WCI  30
ALEXANDRIA     CLEAR     34  30  85 CALM      30.21S
ELBOW LAKE     FAIR      42  27  55 E5        30.20R
WADENA         CLEAR     28  23  80 CALM      30.20S
GLENWOOD       CLEAR     39  28  65 NE3       30.21R
APPLETON       CLEAR     30  27  86 CALM      30.21R
BENSON         CLEAR     28  27  93 CALM      30.21R
ORTONVILLE     CLEAR     36  28  75 CALM      30.21R
MADISON        CLEAR     32  25  74 W6        30.20R WCI  26
WILLMAR        FAIR      34  28  80 E3        30.21S
$$
MNZ033>034-036-042>043-049>051-058-059-271200-
   Central Minnesota

CITY           SKY/WX    TMP DP  RH WIND       PRES   REMARKS
ST CLOUD       CLEAR     28  24  85 N3        30.21R
SAUK CENTRE    FAIR      30  28  90 CALM      30.21S
PAYNESVILLE    CLEAR     27  26  94 CALM      30.21S
AITKIN         CLEAR     27  21  80 CALM      30.20S
PINE RIVER     CLEAR     27  23  86 CALM      30.24S
BRAINERD       CLEAR     28  21  75 CALM      30.21F
STAPLES        CLEAR     28  25  86 CALM      30.21R
LONG PRAIRIE   FAIR      32  27  80 N3        30.21S
LITTLE FALLS   CLEAR     28  27  93 CALM      30.21S
LITCHFIELD     CLEAR     37  28  70 CALM      30.21R
BUFFALO        CLEAR     32  27  80 CALM      30.21S
MAPLE LAKE     CLEAR     31  28  88 CALM      30.21S
$$
MNZ037-044-045-052-053-271200-
   East Central Minnesota

CITY           SKY/WX    TMP DP  RH WIND       PRES   REMARKS
PRINCETON      CLEAR     30  27  86 CALM      30.21S
MORA           CLEAR     27  23  86 CALM      30.23S
CAMBRIDGE      CLEAR     30  23  74 CALM      30.20R
RUSH CITY      CLEAR     31  25  77 CALM      30.22R
MOOSE LAKE     CLEAR     27  23  86 CALM      30.20S
HINCKLEY       FAIR      28  27  93 CALM      30.22S
CLOQUET        CLEAR     27  21  80 NW5       30.21S WCI  21
MCGREGOR       CLEAR     28  27  93 CALM      30.22S
$$
MNZ071>073-080-081-089-090-097-098-271200-
   Southwest Minnesota

CITY           SKY/WX    TMP DP  RH WIND       PRES   REMARKS
MONTEVIDEO     CLEAR     32  21  64 CALM      30.21R
GRANITE FALLS  CLEAR     29  18  62 CALM      30.21R
CANBY          CLEAR     32  27  82 CALM      30.21R
MARSHALL       CLEAR     34  19  55 CALM      30.18S
REDWOOD FALLS  CLEAR     37  22  54 N3        30.19S
OLIVIA         CLEAR     34  21  60 CALM      30.19S
PIPESTONE      CLEAR     37  21  52 E3        30.17S
WINDOM         CLEAR     37  23  56 CALM      30.18R
WORTHINGTON    CLEAR     30  19  64 N7        30.18S WCI  23
JACKSON        CLEAR     34  21  60 CALM      30.18R
TRACY          CLEAR     37  21  51 CALM      30.19S
SLAYTON        CLEAR     33  21  60 CALM      30.20R
$$
MNZ065>067-074>077-082>085-091>093-271200-
   South Central Minnesota

CITY           SKY/WX    TMP DP  RH WIND       PRES   REMARKS
MANKATO        CLEAR     37  21  52 N6        30.18S
NEW ULM        CLEAR     39  21  48 NE5       30.19S
ST JAMES       CLEAR     32  21  64 W5        30.19S WCI  27
FAIRMONT       CLEAR     36  25  64 N6        30.16S
GLENCOE        CLEAR     35  26  71 CALM      30.19S
FARIBAULT      CLEAR     36  28  75 CALM      30.18S
OWATONNA       CLEAR     30  23  74 CALM      30.17S
WASECA         CLEAR     32  25  74 N8        30.18S WCI  25
ALBERT LEA     CLEAR     37  27  65 N5        30.16R
$$
MNZ078>079-086>088-094>096-271200-
   Southeast Minnesota

CITY           SKY/WX    TMP DP  RH WIND       PRES   REMARKS
ROCHESTER      CLEAR     38  26  62 N8        30.16S
RED WING       CLEAR     34  27  75 CALM      30.18S
STANTON        CLEAR     30  26  83 CALM      30.18S
DODGE CENTER   CLEAR     36  27  69 N8        30.16S
WINONA         CLEAR     37  32  81 W3        30.18R
AUSTIN         CLEAR     36  27  69 N3        30.15R
PRESTON        CLEAR     35  27  71 N6        30.15R WCI  30
$$
ABBREVIATIONS USED IN REMARKS
   TC - TEMPERATURES IN CELSIUS
  WCI - WIND CHILL INDEX
   HX - HEAT INDEX
  VSB - VISIBILITY
$$


USA.gov is the U.S. government's official web portal to all federal, state and local government web resources and services.